Location: Aufkirchen
(47.9603°N, 11.3653°E)
Time: 13:22:00
(UTC+01:00)

Transit 2A Rocket - Pass Details

Date: 05 December 2020
Orbit: 592 x 910 km, 66.7° (Epoch: 21 January)

Event Time Altitude Azimuth Distance (km) Brightness Sun altitude
Rises 07:10:30 0° 328° (NNW) 3,219 - -6.3°
Exits shadow 07:11:10 - 331° (NNW) 2,995 7.6 -6.2°
Reaches altitude 10° 07:13:46 10° 347° (NNW) 2,222 7.0 -5.8°
Maximum altitude 07:17:06 17° 29° (NNE) 1,702 6.8 -5.3°
Drops below altitude 10° 07:20:15 10° 71° (ENE) 2,085 7.9 -4.8°
Sets 07:23:11 0° 92° (E) 2,940 9.3 -4.4°
